Location: Monroe
(41.9160°N, 83.3980°W)
Time: 12:00:17
(UTC-04:00)

Daily predictions for brighter satellites

Satellite Brightness Start Highest point End
(mag) Time Altitude Azimuth Time Altitude Azimuth Time Altitude Azimuth
FENGYUN 3A 4.0 21:17:48 10° S 21:23:11 72° WSW 21:28:34 10° NNW
Cosmos 2074 Rocket 4.2 21:20:29 10° S 21:26:47 84° W 21:33:05 10° N
SL-08 ROCKET BODY 4.4 21:21:02 10° S 21:27:02 85° E 21:32:59 10° N
Cosmos 1844 3.8 21:21:20 10° SSW 21:27:03 68° ESE 21:32:50 10° NNE
ALOS 3.0 21:23:42 10° S 21:28:17 56° W 21:32:54 10° NNW
Okean 2 Rocket 4.2 21:29:09 10° SE 21:32:43 24° E 21:36:18 10° NE
NOSS 5 (C) 4.2 21:30:25 10° SSW 21:33:52 74° ESE 21:36:57 10° NE
SJ-11-01 4.4 21:30:34 10° SSE 21:35:17 69° ENE 21:40:00 10° N
Cosmos 1610 Rocket 4.5 21:30:52 10° S 21:37:02 81° E 21:43:18 10° N
Envisat 3.4 21:32:57 10° SE 21:37:49 48° ENE 21:42:42 10° N
USA 186 3.2 21:35:23 10° SSW 21:38:23 39° W 21:41:32 10° NNW
Cosmos 2082 Rocket 3.4 21:35:22 10° N 21:40:12 27° NE 21:44:56 10° ESE
Cosmos 1782 Rocket 4.2 21:36:23 10° SSE 21:40:28 36° E 21:44:34 10° NNE
Resurs 01 Rocket 4.4 21:38:52 10° SW 21:41:26 15° W 21:44:00 10° NW
Nadezhda 3 Rocket 4.1 21:37:36 10° N 21:43:57 66° E 21:50:17 10° SSE
OAO 3 Rocket 4.4 21:40:21 10° SW 21:44:20 24° SSE 21:48:02 11° ESE
Intercosmos 25 4.5 21:43:01 11° SE 21:45:19 19° E 21:47:38 10° NE
Sich 1 Rocket 3.7 21:41:21 10° S 21:45:56 89° W 21:50:33 10° N
Cosmos 2084 3.3 21:43:14 10° SW 21:47:06 80° NW 21:50:57 10° NE
Cosmos 1420 Rocket 4.3 21:44:33 10° S 21:49:30 45° ESE 21:54:28 10° NNE
ERS-1 Rocket 3.0 21:44:36 10° SSE 21:49:38 89° WSW 21:54:43 10° NNW
APEX 4.1 21:46:30 10° S 21:50:05 36° ESE 21:54:40 10° NE
COSMOS 2487 2.5 21:47:48 10° NNW 21:51:26 69° ENE 21:54:41 12° SSE
DNEPR-1 R/B 4.1 21:46:20 10° NNW 21:51:44 56° NE 21:55:32 14° SE
Cosmos 1975 Rocket 3.4 21:50:32 10° N 21:54:45 48° ENE 21:58:29 13° SSE
Cosmos 407 Rocket 4.3 21:50:08 10° NNW 21:55:16 53° WSW 22:00:25 10° S
Cosmos 1140 Rocket 3.6 21:50:33 10° NNW 21:55:38 59° ENE 22:00:07 13° SE
Cosmos 2297 4.1 21:53:12 10° S 21:58:29 40° ESE 22:03:48 10° NE
EO 1 Delta rocket 4.1 21:56:34 10° NNE 22:02:32 73° E 22:07:25 10° S
Terra 3.9 22:01:41 10° E 22:03:41 13° ENE 22:05:42 10° NE
Cosmos 1378 Rocket 3.6 21:59:46 10° N 22:04:05 84° W 22:08:25 10° S
Cosmos 1908 Rocket 3.9 22:00:33 10° SSW 22:04:56 70° W 22:09:24 10° N
ISS -2.4 22:02:57 10° WSW 22:06:08 50° NNW 22:09:20 10° NE
CZ-4B R/B 4.3 22:02:25 10° NE 22:06:37 28° E 22:09:18 17° SE
Cosmos 1606 3.4 22:03:33 10° NNW 22:07:24 56° W 22:11:14 10° S
MetOp-B 4.3 22:04:33 14° SE 22:08:58 56° ENE 22:14:12 10° N
Cosmos 1452 Rocket 4.0 22:04:35 10° SSW 22:09:48 63° WNW 22:15:04 10° NNE
Cosmos 1862 3.8 22:07:52 10° SSW 22:11:55 65° W 22:15:59 10° N
Cosmos 1238 Rocket 2.7 22:09:52 10° N 22:13:15 75° W 22:17:07 11° S
BREEZE-M DEB (TANK) 3.8 22:11:53 10° WNW 22:13:31 20° N 22:15:28 10° NE
Nimbus 7 Rocket 4.4 22:07:37 10° NNE 22:13:36 77° ESE 22:19:35 10° S
Cosmos 2341 Rocket 4.0 22:07:27 10° S 22:13:45 87° E 22:20:03 10° N
H-2A R/B 3.6 22:11:12 14° ESE 22:14:06 21° ENE 22:17:59 10° NNE
Cosmos 1184 Rocket 3.1 22:14:26 10° SSW 22:17:44 69° W 22:21:06 10° N
SPOT 5 3.1 22:14:01 14° SSE 22:18:40 83° ENE 22:24:04 10° NNW
deb Chang Zheng 4 3.8 22:15:20 10° N 22:19:45 74° WNW 22:24:10 10° SSW
SL-8 Rocket 4.1 22:14:22 10° S 22:20:29 59° E 22:26:36 10° NNE
Abrixas 3.1 22:22:21 10° SSW 22:24:56 34° SSE 22:24:56 34° SSE
USA 245 3.6 22:25:48 29° SE 22:27:20 50° ENE 22:31:31 10° N
Gbstr 26 Del rocket 4.5 22:23:10 10° NW 22:28:09 37° NNE 22:31:42 13° E
Cosmos 1242 Rocket 2.6 22:25:28 10° NNW 22:29:08 79° W 22:31:23 22° S
SPOT 1/Viking Rocket 3.7 22:26:12 22° SE 22:29:27 59° ENE 22:34:35 10° N
Timation 2 Rocket 3.9 22:23:52 10° NNW 22:29:52 81° WSW 22:34:07 20° SSE
Elektron 3 4.1 22:27:02 10° NW 22:29:57 72° SW 22:31:54 27° SSE
Lacrosse 5 3.4 22:31:52 18° E 22:31:52 18° E 22:34:00 10° ENE
ARGOS 3.4 22:27:48 23° SE 22:31:00 54° ENE 22:36:13 10° N
H-2A R/B 2.9 22:29:41 11° S 22:33:36 46° W 22:37:40 10° NNW
YAOGAN 6 2.4 22:33:24 30° SSE 22:35:01 88° ENE 22:38:34 10° NNW
Cosmos 1408 4.3 22:34:39 10° SW 22:37:58 32° WNW 22:41:18 10° NNW
Cosmos 2151 Rocket 3.7 22:36:41 26° SSE 22:39:04 57° E 22:43:31 10° NNE
CZ-4C R/B 4.4 22:38:45 26° E 22:39:47 30° ENE 22:43:26 10° N
Cosmos 1850 Rocket 4.2 22:36:06 10° NNW 22:41:25 73° WSW 22:44:49 23° S
USA 229 DEB 3.8 22:38:55 10° NNW 22:46:03 79° NE 22:50:15 28° SE
USA 229 3.8 22:39:01 10° NNW 22:46:10 79° NE 22:50:21 28° SE
Cosmos 1300 Rocket 4.5 22:49:12 30° E 22:49:34 30° E 22:53:27 10° NNE
Cosmos 864 Rocket 4.4 22:45:50 21° S 22:50:03 68° E 22:56:11 10° NNE
NOSS 8 (E) 4.3 22:48:12 22° SSW 22:50:16 70° ESE 22:53:56 10° NE
Meteor 1-20 Rocket 4.4 22:50:15 30° SSE 22:52:36 49° E 22:57:54 10° NNE
Timation 1 Rocket 4.4 22:48:54 16° S 22:53:42 58° ESE 22:59:35 10° NNE
Okean 1 Rocket 4.0 22:56:16 31° E 22:56:26 31° E 23:00:22 10° NNE
GPS 2-05 Rocket1 4.4 22:54:51 10° WSW 22:57:13 25° SSW 22:57:13 25° SSW
Cosmos 1833 Rocket 2.6 22:53:08 10° NNW 22:58:48 86° ENE 23:01:16 35° SSE
Cosmos 2366 rocket 4.0 22:57:17 18° S 23:02:06 89° E 23:08:29 10° N
Cosmos 2278 Rocket 4.0 23:00:07 10° WSW 23:05:08 32° NW 23:10:12 10° N
Cosmos 1331 Rocket 3.9 23:05:38 38° SSE 23:07:27 60° ESE 23:12:32 10° NNE
CZ-4 R/B 3.6 23:04:43 10° NNE 23:09:25 87° ESE 23:11:23 35° SSW
Meteor 1-25 Rocket 4.2 23:06:57 27° S 23:10:20 84° E 23:16:11 10° NNE
Okean 1-7 Rocket 4.1 23:08:30 10° N 23:12:47 42° ENE 23:13:10 41° E
Okean 1 3.3 23:10:18 10° N 23:14:21 62° E 23:14:37 60° ESE
Cosmos 1110 Rocket 3.9 23:13:24 30° SSW 23:16:04 83° ESE 23:21:18 10° NNE
DMSP B5D2-2 4.1 23:14:30 10° NNE 23:19:39 56° E 23:20:36 48° SE
SL-08 RB Rocket 4.2 23:21:37 38° SSW 23:23:07 56° W 23:27:42 10° NNW
Cosmos 2082 Rocket 2.9 23:19:04 10° NW 23:24:30 47° WSW 23:26:48 31° SSW
Landsat 7 3.8 23:23:52 51° S 23:25:03 79° WSW 23:29:51 10° NNW
Cosmos 1812 2.7 23:23:15 10° NNW 23:27:07 75° W 23:27:16 73° WSW
OAO 3 Rocket 4.3 23:22:46 10° WSW 23:25:52 30° SSW 23:25:52 30° SSW
CARTOSAT-1 3.4 23:32:46 76° S 23:33:07 88° W 23:37:27 10° NNW
NOSS 3-1 (C) 4.2 23:25:57 10° NNW 23:33:27 67° NE 23:37:00 36° ESE
Genesis I 4.3 23:37:08 36° NE 23:37:08 36° NE 23:39:38 10° NE
Meteor 2-4 Rocket 4.4 23:31:28 10° N 23:36:31 36° ENE 23:37:12 35° E
Terra 1.7 23:40:06 65° SSW 23:40:46 79° WSW 23:45:32 10° NNW
BREEZE-M TANK 3.1 23:31:47 10° WNW 23:41:08 67° N 23:42:07 47° ENE
USA 234 3.3 23:35:56 10° NE 23:42:19 54° SE 23:43:57 44° S
ISS -0.3 23:40:54 10° NW 23:43:08 17° N 23:45:22 10° NNE
Cosmos 1486 Rocket 3.9 23:38:30 10° NNW 23:43:53 90° E 23:44:40 66° SSE
Cosmos 1354 Rocket 4.4 23:39:19 10° N 23:44:25 48° ENE 23:45:03 46° E
Meteor 1-13 Rocket 4.2 23:42:08 10° N 23:48:08 87° E 23:49:25 58° SSE
H-2A R/B 2.6 23:51:51 44° SW 23:53:07 54° W 23:58:18 10° NNW
Spot 2 4.2 23:49:58 10° NNE 23:53:38 62° NE 23:53:38 62° NE
